{"data":{"norad_id":53588,"intl_designator":"2022-104A","name":"STARLINK-4691","alt_names":[],"object_type":"PAYLOAD","status":"ACTIVE","operator":null,"country":"US","launch_date":"2022-08-28","launch_site_code":"AFETR","launch_vehicle":null,"mission":null,"orbit_class":"UNKNOWN","rcs_meters":null,"size_class":null,"mass_kg":null,"dimensions":null,"purposes":["comms"],"wikipedia_slug":null,"has_3d_model":false,"image_url":null,"decayed_at":null,"tle_current":{"epoch":"2026-09-20T22:03:12.919392Z","epoch_age_seconds":42363,"freshness":"FRESH","line1":"1 53588U 22104A   26263.91889953  .00000730  00000+0  31821-4 0  9997","line2":"2 53588  53.1609  82.4333 0000866 112.4124 247.6971 15.35402998225633","mean_motion":15.35402998,"eccentricity":8.66e-5,"inclination_deg":53.1609,"raan_deg":82.4333,"arg_perigee_deg":112.4124,"mean_anomaly_deg":247.6971,"bstar":3.1821e-5,"rev_number":22563,"period_min":93.786452278374,"perigee_km":459.13158299793,"apogee_km":460.3159004784,"semimajor_km":6837.8607417382,"source":"CELESTRAK","updated_at":"2026-09-21T09:00:32.934051Z"}}}